Flag for Germany Weather past 2 weeks in Mühlhausen/Thüringen, Thuringia, Germany

Now
33 °F

Low clouds.


Feels Like: 27 °F
Forecast: 34 / 38 °F
Wind: 7 mph from West

Location: Erfurt-Bindersleben

Current Time: Jan 25, 2015 at 3:38:38 PM

Latest Report: Jan 25, 2015 at 3:00 PM


Visibility: 13 mi

Pressure: 30.34 "Hg

Humidity: 97%

Dew point: 33 °F

Location of Mühlhausen/ThüringenLocation

Historic Weather in Mühlhausen/Thüringen — Graph

°F

Mühlhausen/Thüringen temperature yesterday

Maximum temperature yesterday: 33 °F (at 11:00 PM)
Minimum temperature yesterday: 20 °F (at 9:00 AM)
Average temperature yesterday: 29 °F

Past Weeks' High & Low Weather Summary

 TemperatureHumidityPressure
High56 °F (Jan 10, 2:00 PM)100% (Jan 16, 10:00 PM)30.38 "Hg (Jan 16, 10:00 PM)
Low20 °F (Jan 24, 9:00 AM)50% (Jan 13, 3:00 PM)29.62 "Hg (Jan 15, 6:00 PM)
Average35 °F87%29.97 "Hg
* Reported Jan 10 2:00 PM — Jan 25 2:00 PM, Mühlhausen/Thüringen, Weather by CustomWeather, © 2014

Note: Actual official high and low records may vary slightly from our data, if they occured in-between our weather recording intervals... More about our weather records

Advertising

Mühlhausen/Thüringen weather history for previous 24 hours

 ConditionsComfort  
Time TempWeatherWind HumidityBarometerVisibility
2:00 PM
Jan 25
33 °FSnow flurries. Low clouds.6 mph98%30.34 "Hg4 mi
1:00 PM33 °FSnow flurries. Low clouds.6 mph93%30.36 "Hg2 mi
12:00 PM33 °FLow clouds.6 mph93%30.36 "Hg16 mi
11:00 AM33 °FOvercast.3 mph91%30.38 "Hg19 mi
10:00 AM31 °FPartly sunny.5 mph92%30.37 "Hg16 mi
9:00 AM31 °FPartly sunny.3 mph95%30.36 "Hg16 mi
8:00 AM31 °FPassing clouds.7 mph94%30.34 "Hg16 mi
7:00 AM31 °FOvercast.5 mph95%30.33 "Hg12 mi
6:00 AM31 °FOvercast.5 mph93%30.31 "Hg12 mi
4:00 AM32 °FOvercast.7 mph93%30.28 "Hg9 mi
3:00 AM32 °FPassing clouds.8 mph91%30.26 "Hg9 mi
2:00 AM32 °FPassing clouds.7 mph93%30.25 "Hg7 mi
1:00 AM33 °FLow clouds.8 mph94%30.23 "Hg6 mi
12:00 AM33 °FLow clouds.7 mph95%30.22 "Hg6 mi
11:00 PM
Jan 24
33 °FLow clouds.7 mph96%30.20 "Hg6 mi
10:00 PM31 °FLight snow. Low clouds.6 mph97%30.19 "Hg2 mi
9:00 PM30 °FLight snow. Low clouds.7 mph97%30.17 "Hg3 mi
8:00 PM30 °FLight snow. Low clouds.7 mph96%30.17 "Hg3 mi
7:00 PM30 °FLight snow. Overcast.6 mph95%30.15 "Hg4 mi
6:00 PM30 °FOvercast.6 mph88%30.13 "Hg10 mi
5:00 PM30 °FOvercast.6 mph86%30.12 "Hg11 mi
4:00 PM31 °FOvercast.5 mph87%30.11 "Hg12 mi
3:00 PM31 °FPartly sunny.7 mph85%30.09 "Hg12 mi
Weather by CustomWeather, © 2014

See weather overviewHow to use our weather pages